| time (UTC) | temp F | wind direction | speed MPH | gust MPH | rain 1hr in | rain 24hr in | rain mn in | humidity % | barometer mb |
| 20260507120633 | 57 | 157 | 0.0 | 1.0 | 0.00 | 0.10 | 0.10 | 68 | 1014.3 |
| 20260507120130 | 58 | 150 | 0.0 | 1.0 | 0.00 | 0.10 | 0.10 | 67 | 1014.7 |
| 20260507115626 | 57 | 148 | 0.0 | 0.0 | 0.00 | 0.10 | 0.10 | 68 | 1014.3 |
| 20260507115122 | 57 | 157 | 0.0 | 2.0 | 0.00 | 0.10 | 0.10 | 67 | 1014.3 |
| 20260507114618 | 57 | 131 | 1.0 | 3.0 | 0.00 | 0.10 | 0.10 | 66 | 1014.1 |
| 20260507114116 | 57 | 181 | 0.0 | 1.0 | 0.00 | 0.10 | 0.10 | 67 | 1014.0 |
| 20260507113613 | 57 | 134 | 0.0 | 1.0 | 0.00 | 0.10 | 0.10 | 67 | 1014.0 |
| 20260507113110 | 57 | 151 | 0.0 | 1.0 | 0.00 | 0.10 | 0.10 | 69 | 1014.2 |
| 20260507112608 | 57 | 149 | 0.0 | 1.0 | 0.00 | 0.10 | 0.10 | 69 | 1014.0 |
| 20260507112104 | 57 | 157 | 0.0 | 1.0 | 0.00 | 0.10 | 0.10 | 70 | 1014.3 |
| 20260507111601 | 57 | 164 | 0.0 | 0.0 | 0.00 | 0.10 | 0.10 | 71 | 1014.0 |
| 20260507111058 | 57 | 168 | 0.0 | 2.0 | 0.00 | 0.10 | 0.10 | 70 | 1014.1 |
| 20260507110554 | 57 | 148 | 0.0 | 2.0 | 0.00 | 0.10 | 0.10 | 70 | 1013.9 |
| 20260507110051 | 57 | 151 | 0.0 | 3.0 | 0.00 | 0.10 | 0.10 | 70 | 1013.9 |
| 20260507105548 | 57 | 149 | 0.0 | 2.0 | 0.00 | 0.10 | 0.10 | 73 | 1013.9 |
| 20260507105044 | 57 | 172 | 1.0 | 1.0 | 0.00 | 0.10 | 0.10 | 73 | 1014.0 |
| 20260507104541 | 57 | 152 | 0.0 | 0.0 | 0.00 | 0.10 | 0.10 | 75 | 1013.7 |
| 20260507104037 | 57 | 169 | 0.0 | 1.0 | 0.00 | 0.10 | 0.10 | 77 | 1013.8 |
| 20260507103534 | 57 | 165 | 0.0 | 0.0 | 0.00 | 0.10 | 0.10 | 80 | 1013.8 |
| 20260507103031 | 57 | 159 | 0.0 | 1.0 | 0.00 | 0.10 | 0.10 | 79 | 1013.8 |
| 20260507102527 | 57 | 150 | 0.0 | 2.0 | 0.00 | 0.10 | 0.10 | 80 | 1013.7 |
| 20260507102023 | 57 | 156 | 1.0 | 4.0 | 0.00 | 0.10 | 0.10 | 80 | 1013.6 |
| 20260507101519 | 57 | 134 | 2.0 | 3.0 | 0.00 | 0.10 | 0.10 | 81 | 1013.6 |
| 20260507101015 | 57 | 159 | 1.0 | 3.0 | 0.00 | 0.10 | 0.10 | 82 | 1013.4 |
| 20260507100513 | 57 | 192 | 4.0 | 4.0 | 0.00 | 0.10 | 0.10 | 82 | 1013.1 |
| 20260507100011 | 57 | 143 | 0.0 | 1.0 | 0.00 | 0.10 | 0.10 | 83 | 1013.4 |
| 20260507095508 | 57 | 157 | 0.0 | 1.0 | 0.00 | 0.10 | 0.10 | 82 | 1013.4 |
| 20260507095005 | 56 | 160 | 0.0 | 2.0 | 0.00 | 0.10 | 0.10 | 82 | 1013.4 |
| 20260507094501 | 57 | 159 | 0.0 | 0.0 | 0.00 | 0.10 | 0.10 | 83 | 1013.5 |
| 20260507093958 | 56 | 165 | 1.0 | 3.0 | 0.00 | 0.10 | 0.10 | 82 | 1013.7 |
| 20260507093456 | 56 | 146 | 1.0 | 3.0 | 0.00 | 0.10 | 0.10 | 82 | 1013.5 |
| 20260507092954 | 56 | 123 | 3.0 | 4.0 | 0.00 | 0.10 | 0.10 | 82 | 1013.3 |
| 20260507092450 | 56 | 176 | 1.0 | 3.0 | 0.00 | 0.10 | 0.10 | 83 | 1013.1 |
| 20260507091947 | 57 | 177 | 2.0 | 3.0 | 0.00 | 0.10 | 0.10 | 83 | 1013.2 |
| 20260507091444 | 57 | 137 | 1.0 | 3.0 | 0.00 | 0.10 | 0.10 | 83 | 1013.2 |
| 20260507090939 | 57 | 182 | 1.0 | 3.0 | 0.00 | 0.10 | 0.10 | 83 | 1013.4 |
| 20260507090435 | 57 | 163 | 2.0 | 3.0 | 0.00 | 0.10 | 0.10 | 83 | 1013.4 |
| 20260507085932 | 57 | 154 | 0.0 | 1.0 | 0.00 | 0.10 | 0.10 | 85 | 1013.3 |
| 20260507085429 | 57 | 170 | 0.0 | 1.0 | 0.00 | 0.10 | 0.10 | 85 | 1013.4 |
| 20260507084927 | 57 | 220 | 2.0 | 4.0 | 0.00 | 0.10 | 0.10 | 85 | 1013.4 |
| 20260507084423 | 57 | 176 | 2.0 | 3.0 | 0.00 | 0.10 | 0.10 | 86 | 1013.0 |
| 20260507083915 | 56 | 156 | 0.0 | 0.0 | 0.00 | 0.10 | 0.10 | 87 | 1013.0 |
| 20260507083411 | 56 | 193 | 1.0 | 2.0 | 0.00 | 0.10 | 0.10 | 87 | 1013.1 |
| 20260507082908 | 56 | 155 | 0.0 | 1.0 | 0.00 | 0.10 | 0.10 | 89 | 1013.2 |
| 20260507082404 | 56 | 156 | 0.0 | 0.0 | 0.00 | 0.10 | 0.10 | 88 | 1013.1 |
| 20260507081901 | 56 | 129 | 0.0 | 0.0 | 0.00 | 0.10 | 0.10 | 88 | 1012.9 |
| 20260507081357 | 56 | 225 | 2.0 | 2.0 | 0.00 | 0.10 | 0.10 | 88 | 1012.9 |
| 20260507080854 | 57 | 187 | 1.0 | 2.0 | 0.00 | 0.10 | 0.10 | 88 | 1012.8 |
| 20260507080350 | 57 | 145 | 0.0 | 1.0 | 0.00 | 0.10 | 0.10 | 87 | 1012.6 |
| 20260507075846 | 57 | 152 | 0.0 | 3.0 | 0.00 | 0.10 | 0.10 | 85 | 1012.5 |
| 20260507075341 | 57 | 212 | 1.0 | 2.0 | 0.00 | 0.10 | 0.10 | 86 | 1012.7 |
| 20260507074838 | 57 | 141 | 2.0 | 2.0 | 0.00 | 0.10 | 0.10 | 85 | 1012.5 |
| 20260507074336 | 57 | 220 | 1.0 | 2.0 | 0.00 | 0.10 | 0.10 | 85 | 1012.5 |
| 20260507073833 | 57 | 222 | 1.0 | 7.0 | 0.00 | 0.10 | 0.10 | 87 | 1012.5 |
| 20260507073329 | 57 | 157 | 0.0 | 0.0 | 0.00 | 0.10 | 0.10 | 90 | 1012.2 |
| 20260507072826 | 58 | 162 | 0.0 | 1.0 | 0.00 | 0.10 | 0.10 | 91 | 1012.2 |
| 20260507072323 | 58 | 157 | 0.0 | 0.0 | 0.00 | 0.10 | 0.10 | 91 | 1012.1 |
| 20260507071821 | 58 | 186 | 1.0 | 2.0 | 0.00 | 0.10 | 0.10 | 91 | 1012.4 |
| 20260507071318 | 58 | 166 | 0.0 | 0.0 | 0.00 | 0.10 | 0.10 | 92 | 1012.1 |
| 20260507070814 | 58 | 159 | 0.0 | 1.0 | 0.00 | 0.10 | 0.10 | 91 | 1012.1 |
| 20260507070312 | 58 | 167 | 0.0 | 1.0 | 0.00 | 0.10 | 0.10 | 91 | 1012.3 |
| 20260507065808 | 58 | 161 | 0.0 | 1.0 | 0.00 | 0.10 | 0.10 | 91 | 1012.2 |
| 20260507065306 | 58 | 150 | 0.0 | 0.0 | 0.00 | 0.10 | 0.10 | 92 | 1012.2 |
| 20260507064802 | 58 | 176 | 1.0 | 2.0 | 0.00 | 0.10 | 0.10 | 92 | 1012.2 |
| 20260507064301 | 58 | 164 | 0.0 | 1.0 | 0.00 | 0.10 | 0.10 | 92 | 1012.2 |
| 20260507063758 | 58 | 153 | 0.0 | 0.0 | 0.00 | 0.10 | 0.10 | 92 | 1012.1 |
| 20260507063255 | 58 | 153 | 0.0 | 0.0 | 0.00 | 0.10 | 0.10 | 92 | 1012.3 |
| 20260507062752 | 58 | 158 | 0.0 | 0.0 | 0.00 | 0.10 | 0.10 | 92 | 1012.4 |
| 20260507062249 | 58 | 194 | 1.0 | 2.0 | 0.00 | 0.10 | 0.10 | 92 | 1012.1 |
| 20260507061747 | 58 | 160 | 0.0 | 3.0 | 0.00 | 0.10 | 0.10 | 92 | 1011.9 |
| 20260507061244 | 58 | 152 | 0.0 | 1.0 | 0.00 | 0.10 | 0.10 | 92 | 1012.1 |
| 20260507060743 | 58 | 151 | 0.0 | 2.0 | 0.07 | 0.10 | 0.10 | 92 | 1012.3 |
| 20260507060239 | 58 | 132 | 1.0 | 1.0 | 0.07 | 0.10 | 0.10 | 92 | 1011.8 |
| 20260507055735 | 58 | 156 | 0.0 | 3.0 | 0.00 | 0.09 | 0.09 | 91 | 1012.0 |
| 20260507055230 | 58 | 148 | 0.0 | 2.0 | 0.00 | 0.09 | 0.09 | 91 | 1012.3 |
| 20260507054727 | 58 | 182 | 0.0 | 1.0 | 0.05 | 0.09 | 0.09 | 91 | 1012.2 |
| 20260507054224 | 59 | 168 | 1.0 | 1.0 | 0.05 | 0.09 | 0.09 | 90 | 1012.1 |
| 20260507053722 | 59 | 191 | 0.0 | 1.0 | 0.00 | 0.08 | 0.08 | 90 | 1012.2 |
| 20260507053219 | 59 | 156 | 0.0 | 0.0 | 0.00 | 0.08 | 0.08 | 90 | 1012.2 |
| 20260507052718 | 59 | 171 | 0.0 | 1.0 | 0.00 | 0.08 | 0.08 | 89 | 1012.4 |
| 20260507052214 | 59 | 177 | 1.0 | 2.0 | 0.00 | 0.08 | 0.08 | 89 | 1011.9 |
| 20260507051712 | 59 | 174 | 0.0 | 1.0 | 0.00 | 0.08 | 0.08 | 89 | 1011.8 |
| 20260507051208 | 59 | 146 | 0.0 | 1.0 | 0.00 | 0.08 | 0.08 | 89 | 1012.3 |
| 20260507050705 | 59 | 157 | 0.0 | 1.0 | 0.00 | 0.08 | 0.08 | 89 | 1012.4 |
| 20260507050202 | 59 | 166 | 1.0 | 1.0 | 0.00 | 0.08 | 0.08 | 88 | 1012.4 |
| 20260507045658 | 60 | 156 | 0.0 | 1.0 | 0.07 | 0.08 | 0.08 | 89 | 1012.2 |
| 20260507045156 | 60 | 159 | 0.0 | 1.0 | 0.12 | 0.08 | 0.08 | 88 | 1012.1 |
| 20260507044652 | 61 | 179 | 2.0 | 4.0 | 0.12 | 0.07 | 0.07 | 87 | 1013.0 |
| 20260507044149 | 62 | 158 | 1.0 | 1.0 | 0.19 | 0.06 | 0.06 | 87 | 1011.7 |
| 20260507043645 | 62 | 172 | 0.0 | 0.0 | 0.24 | 0.05 | 0.05 | 85 | 1012.3 |
| 20260507043142 | 63 | 179 | 0.0 | 0.0 | 0.14 | 0.02 | 0.02 | 83 | 1012.5 |
| 20260507042638 | 63 | 190 | 0.0 | 2.0 | 0.07 | 0.01 | 0.01 | 81 | 1012.5 |
| 20260507042132 | 64 | 138 | 0.0 | 1.0 | 0.00 | 0.00 | 0.00 | 79 | 1012.1 |
| 20260507041630 | 64 | 150 | 0.0 | 0.0 | 0.00 | 0.00 | 0.00 | 79 | 1012.0 |
| 20260507041121 | 64 | 186 | 0.0 | 1.0 | 0.00 | 0.00 | 0.00 | 78 | 1012.4 |
| 20260507040618 | 64 | 169 | 1.0 | 2.0 | 0.00 | 0.00 | 0.00 | 79 | 1012.4 |
| 20260507040115 | 64 | 177 | 1.0 | 6.0 | 0.00 | 0.00 | 0.00 | 79 | 1011.9 |
| 20260507035610 | 64 | 155 | 0.0 | 1.0 | 0.00 | 0.23 | 0.23 | 78 | 1011.9 |
| 20260507035101 | 65 | 196 | 0.0 | 1.0 | 0.00 | 0.23 | 0.23 | 76 | 1012.1 |
| 20260507034558 | 65 | 162 | 1.0 | 2.0 | 0.00 | 0.23 | 0.23 | 73 | 1011.7 |
| 20260507034056 | 65 | 218 | 0.0 | 4.0 | 0.00 | 0.23 | 0.23 | 72 | 1012.2 |
| 20260507033554 | 66 | 243 | 2.0 | 2.0 | 0.00 | 0.23 | 0.23 | 73 | 1011.8 |
| 20260507033051 | 66 | 157 | 0.0 | 1.0 | 0.00 | 0.23 | 0.23 | 74 | 1011.6 |
| 20260507032548 | 66 | 158 | 1.0 | 1.0 | 0.00 | 0.23 | 0.23 | 74 | 1011.8 |
| 20260507032044 | 66 | 151 | 0.0 | 1.0 | 0.00 | 0.23 | 0.23 | 76 | 1011.8 |
| 20260507031541 | 66 | 177 | 0.0 | 0.0 | 0.00 | 0.23 | 0.23 | 76 | 1011.6 |
| 20260507031038 | 66 | 162 | 0.0 | 1.0 | 0.00 | 0.23 | 0.23 | 76 | 1011.1 |
| 20260507030534 | 66 | 170 | 0.0 | 1.0 | 0.00 | 0.23 | 0.23 | 76 | 1011.1 |
| 20260507030032 | 66 | 159 | 0.0 | 1.0 | 0.00 | 0.23 | 0.23 | 76 | 1011.1 |
| 20260507025529 | 66 | 156 | 0.0 | 3.0 | 0.00 | 0.23 | 0.23 | 75 | 1011.3 |
| 20260507025027 | 67 | 157 | 0.0 | 1.0 | 0.00 | 0.23 | 0.23 | 76 | 1011.3 |
| 20260507024524 | 67 | 153 | 0.0 | 2.0 | 0.00 | 0.23 | 0.23 | 77 | 1011.1 |
| 20260507024021 | 67 | 170 | 0.0 | 2.0 | 0.00 | 0.23 | 0.23 | 78 | 1011.3 |
| 20260507023516 | 67 | 205 | 0.0 | 1.0 | 0.00 | 0.23 | 0.23 | 79 | 1011.3 |
| 20260507023014 | 67 | 181 | 0.0 | 2.0 | 0.00 | 0.23 | 0.23 | 80 | 1010.8 |
| 20260507022510 | 68 | 157 | 0.0 | 1.0 | 0.00 | 0.23 | 0.23 | 82 | 1010.9 |
| 20260507022006 | 68 | 153 | 0.0 | 1.0 | 0.00 | 0.23 | 0.23 | 82 | 1010.7 |
| 20260507021501 | 68 | 179 | 1.0 | 3.0 | 0.00 | 0.23 | 0.23 | 83 | 1010.9 |
| 20260507020958 | 69 | 151 | 1.0 | 3.0 | 0.00 | 0.23 | 0.23 | 82 | 1010.8 |
| 20260507020455 | 69 | 146 | 0.0 | 0.0 | 0.00 | 0.23 | 0.23 | 83 | 1010.7 |
| 20260507015952 | 69 | 173 | 0.0 | 0.0 | 0.00 | 0.23 | 0.23 | 82 | 1010.6 |
| 20260507015451 | 69 | 154 | 0.0 | 0.0 | 0.00 | 0.23 | 0.23 | 82 | 1010.5 |
| 20260507014948 | 69 | 178 | 0.0 | 0.0 | 0.00 | 0.23 | 0.23 | 82 | 1010.8 |
| 20260507014444 | 69 | 169 | 0.0 | 0.0 | 0.00 | 0.23 | 0.23 | 82 | 1010.6 |
| 20260507013940 | 69 | 162 | 0.0 | 0.0 | 0.00 | 0.23 | 0.23 | 82 | 1010.5 |
| 20260507013437 | 69 | 161 | 0.0 | 0.0 | 0.00 | 0.23 | 0.23 | 82 | 1010.7 |
| 20260507012935 | 69 | 177 | 0.0 | 0.0 | 0.00 | 0.23 | 0.23 | 82 | 1010.9 |
| 20260507012431 | 69 | 152 | 0.0 | 0.0 | 0.00 | 0.23 | 0.23 | 82 | 1010.9 |
| 20260507011928 | 69 | 143 | 0.0 | 0.0 | 0.00 | 0.23 | 0.23 | 81 | 1010.8 |
| 20260507011425 | 69 | 156 | 0.0 | 0.0 | 0.00 | 0.23 | 0.23 | 81 | 1011.0 |
| 20260507010925 | 69 | 154 | 0.0 | 0.0 | 0.00 | 0.23 | 0.23 | 81 | 1011.0 |
| 20260507010421 | 69 | 158 | 0.0 | 0.0 | 0.00 | 0.23 | 0.23 | 81 | 1011.2 |
| 20260507005918 | 69 | 156 | 0.0 | 0.0 | 0.00 | 0.23 | 0.23 | 81 | 1011.0 |
| 20260507005415 | 69 | 154 | 0.0 | 0.0 | 0.00 | 0.23 | 0.23 | 81 | 1011.0 |
| 20260507004911 | 69 | 149 | 0.0 | 0.0 | 0.00 | 0.23 | 0.23 | 81 | 1010.7 |
| 20260507004408 | 69 | 144 | 0.0 | 0.0 | 0.00 | 0.23 | 0.23 | 81 | 1010.7 |
| 20260507003906 | 69 | 169 | 0.0 | 0.0 | 0.00 | 0.23 | 0.23 | 81 | 1010.8 |
| 20260507003401 | 69 | 161 | 0.0 | 0.0 | 0.00 | 0.23 | 0.23 | 80 | 1010.4 |
| 20260507002856 | 69 | 164 | 0.0 | 0.0 | 0.00 | 0.23 | 0.23 | 80 | 1010.5 |
| 20260507002352 | 69 | 160 | 0.0 | 0.0 | 0.00 | 0.23 | 0.23 | 80 | 1010.6 |
| 20260507001850 | 69 | 156 | 0.0 | 0.0 | 0.00 | 0.23 | 0.23 | 80 | 1010.4 |
| 20260507001346 | 69 | 156 | 0.0 | 0.0 | 0.00 | 0.23 | 0.23 | 80 | 1010.4 |
| 20260507000843 | 69 | 159 | 0.0 | 0.0 | 0.00 | 0.23 | 0.23 | 79 | 1010.2 |
| 20260507000338 | 70 | 160 | 0.0 | 0.0 | 0.00 | 0.23 | 0.23 | 79 | 1010.4 |
| 20260506235835 | 70 | 159 | 0.0 | 0.0 | 0.00 | 0.23 | 0.23 | 79 | 1010.5 |
| 20260506235332 | 70 | 159 | 0.0 | 0.0 | 0.00 | 0.23 | 0.23 | 79 | 1010.2 |
| 20260506234828 | 70 | 159 | 0.0 | 0.0 | 0.00 | 0.23 | 0.23 | 79 | 1010.2 |
| 20260506234326 | 70 | 174 | 0.0 | 0.0 | 0.00 | 0.23 | 0.23 | 78 | 1010.1 |
| 20260506233823 | 70 | 161 | 0.0 | 0.0 | 0.00 | 0.23 | 0.23 | 78 | 1010.0 |
| 20260506233319 | 70 | 184 | 0.0 | 0.0 | 0.00 | 0.23 | 0.23 | 78 | 1010.0 |
| 20260506232816 | 70 | 211 | 0.0 | 1.0 | 0.00 | 0.23 | 0.23 | 78 | 1010.1 |
| 20260506232311 | 70 | 154 | 0.0 | 1.0 | 0.00 | 0.23 | 0.23 | 78 | 1009.9 |
| 20260506231809 | 70 | 192 | 1.0 | 2.0 | 0.00 | 0.23 | 0.23 | 77 | 1009.9 |
| 20260506231307 | 70 | 234 | 1.0 | 1.0 | 0.00 | 0.23 | 0.23 | 77 | 1009.8 |
| 20260506230804 | 70 | 177 | 0.0 | 1.0 | 0.00 | 0.23 | 0.23 | 77 | 1010.0 |
| 20260506230300 | 70 | 239 | 1.0 | 2.0 | 0.00 | 0.23 | 0.23 | 77 | 1010.0 |
| 20260506225756 | 70 | 170 | 0.0 | 0.0 | 0.00 | 0.23 | 0.23 | 77 | 1009.8 |
| 20260506225254 | 70 | 153 | 1.0 | 3.0 | 0.00 | 0.23 | 0.23 | 77 | 1009.7 |
| 20260506224750 | 70 | 147 | 0.0 | 1.0 | 0.00 | 0.23 | 0.23 | 77 | 1009.6 |
| 20260506224248 | 70 | 284 | 2.0 | 3.0 | 0.00 | 0.23 | 0.23 | 77 | 1009.8 |
| 20260506223744 | 71 | 147 | 1.0 | 2.0 | 0.00 | 0.23 | 0.23 | 77 | 1009.8 |
| 20260506223239 | 71 | 161 | 0.0 | 2.0 | 0.00 | 0.23 | 0.23 | 76 | 1009.9 |
| 20260506222731 | 71 | 142 | 1.0 | 2.0 | 0.00 | 0.23 | 0.23 | 76 | 1009.6 |
| 20260506222226 | 71 | 160 | 0.0 | 1.0 | 0.00 | 0.23 | 0.23 | 77 | 1009.7 |
| 20260506221724 | 71 | 171 | 0.0 | 1.0 | 0.00 | 0.23 | 0.23 | 77 | 1009.7 |
| 20260506221222 | 70 | 118 | 0.0 | 4.0 | 0.00 | 0.23 | 0.23 | 77 | 1009.8 |
| 20260506220719 | 71 | 278 | 2.0 | 2.0 | 0.00 | 0.23 | 0.23 | 76 | 1009.8 |
| 20260506220213 | 70 | 183 | 1.0 | 3.0 | 0.00 | 0.23 | 0.23 | 77 | 1009.8 |
| 20260506215710 | 70 | 139 | 1.0 | 2.0 | 0.00 | 0.23 | 0.23 | 77 | 1009.8 |
| 20260506215206 | 70 | 271 | 3.0 | 6.0 | 0.00 | 0.23 | 0.23 | 76 | 1009.8 |
| 20260506214703 | 71 | 295 | 2.0 | 3.0 | 0.00 | 0.23 | 0.23 | 76 | 1009.8 |
| 20260506214200 | 71 | 293 | 3.0 | 6.0 | 0.00 | 0.23 | 0.23 | 75 | 1009.7 |
| 20260506213659 | 71 | 113 | 2.0 | 3.0 | 0.00 | 0.23 | 0.23 | 75 | 1009.9 |
| 20260506213155 | 71 | 258 | 1.0 | 2.0 | 0.00 | 0.23 | 0.23 | 75 | 1009.7 |
| 20260506212654 | 71 | 124 | 1.0 | 6.0 | 0.00 | 0.23 | 0.23 | 75 | 1009.9 |
| 20260506212153 | 71 | 214 | 1.0 | 8.0 | 0.00 | 0.23 | 0.23 | 76 | 1009.7 |
| 20260506211644 | 71 | 278 | 2.0 | 3.0 | 0.00 | 0.23 | 0.23 | 75 | 1009.8 |
| 20260506211141 | 71 | 40 | 2.0 | 6.0 | 0.00 | 0.23 | 0.23 | 75 | 1009.6 |
| 20260506210638 | 71 | 268 | 1.0 | 6.0 | 0.00 | 0.23 | 0.23 | 75 | 1009.5 |
| 20260506210134 | 70 | 156 | 1.0 | 7.0 | 0.00 | 0.23 | 0.23 | 76 | 1009.2 |
| 20260506205631 | 71 | 309 | 4.0 | 4.0 | 0.00 | 0.23 | 0.23 | 75 | 1009.3 |
| 20260506205126 | 71 | 253 | 2.0 | 4.0 | 0.00 | 0.23 | 0.23 | 75 | 1009.5 |
| 20260506204625 | 71 | 193 | 0.0 | 2.0 | 0.00 | 0.23 | 0.23 | 75 | 1009.2 |
| 20260506204121 | 70 | 118 | 1.0 | 7.0 | 0.00 | 0.23 | 0.23 | 76 | 1009.4 |
| 20260506203620 | 70 | 328 | 1.0 | 6.0 | 0.00 | 0.23 | 0.23 | 76 | 1009.4 |
| 20260506203116 | 70 | 231 | 4.0 | 9.0 | 0.00 | 0.23 | 0.23 | 77 | 1009.3 |
| 20260506202614 | 71 | 199 | 4.0 | 6.0 | 0.00 | 0.23 | 0.23 | 75 | 1009.3 |
| 20260506202110 | 70 | 87 | 1.0 | 6.0 | 0.00 | 0.23 | 0.23 | 77 | 1009.1 |
| 20260506201607 | 70 | 293 | 3.0 | 7.0 | 0.00 | 0.23 | 0.23 | 77 | 1009.2 |
| 20260506201103 | 70 | 306 | 2.0 | 7.0 | 0.00 | 0.23 | 0.23 | 77 | 1009.2 |
| 20260506200600 | 70 | 223 | 2.0 | 6.0 | 0.00 | 0.23 | 0.23 | 78 | 1009.4 |
| 20260506200057 | 69 | 126 | 0.0 | 4.0 | 0.00 | 0.23 | 0.23 | 78 | 1009.6 |
| 20260506195553 | 69 | 70 | 4.0 | 6.0 | 0.00 | 0.23 | 0.23 | 77 | 1009.5 |
| 20260506195050 | 69 | 262 | 6.0 | 9.0 | 0.00 | 0.23 | 0.23 | 77 | 1009.5 |
| 20260506194548 | 69 | 297 | 4.0 | 8.0 | 0.00 | 0.23 | 0.23 | 78 | 1009.5 |
| 20260506194044 | 69 | 230 | 4.0 | 9.0 | 0.00 | 0.23 | 0.23 | 77 | 1009.4 |
| 20260506193542 | 69 | 85 | 2.0 | 8.0 | 0.00 | 0.23 | 0.23 | 78 | 1009.3 |
| 20260506193038 | 69 | 236 | 2.0 | 7.0 | 0.00 | 0.23 | 0.23 | 78 | 1009.3 |
| 20260506192535 | 69 | 138 | 4.0 | 7.0 | 0.00 | 0.23 | 0.23 | 77 | 1009.5 |
| 20260506192031 | 69 | 237 | 4.0 | 10.0 | 0.00 | 0.23 | 0.23 | 79 | 1009.5 |
| 20260506191528 | 68 | 320 | 6.0 | 9.0 | 0.00 | 0.23 | 0.23 | 79 | 1009.8 |
| 20260506191024 | 68 | 304 | 6.0 | 13.0 | 0.00 | 0.23 | 0.23 | 79 | 1009.8 |
| 20260506190521 | 68 | 285 | 4.0 | 8.0 | 0.00 | 0.23 | 0.23 | 79 | 1009.9 |
| 20260506190019 | 68 | 321 | 2.0 | 7.0 | 0.00 | 0.23 | 0.23 | 79 | 1009.9 |
| 20260506185516 | 68 | 315 | 4.0 | 8.0 | 0.00 | 0.23 | 0.23 | 79 | 1009.9 |
| 20260506185012 | 68 | 127 | 3.0 | 8.0 | 0.00 | 0.23 | 0.23 | 79 | 1010.2 |
| 20260506184509 | 68 | 340 | 2.0 | 3.0 | 0.00 | 0.23 | 0.23 | 79 | 1010.0 |
| 20260506184007 | 69 | 84 | 1.0 | 6.0 | 0.00 | 0.23 | 0.23 | 79 | 1010.0 |
| 20260506183503 | 68 | 129 | 2.0 | 4.0 | 0.00 | 0.23 | 0.23 | 79 | 1010.0 |
| 20260506183000 | 68 | 292 | 4.0 | 7.0 | 0.00 | 0.23 | 0.23 | 79 | 1010.0 |
| 20260506182456 | 68 | 209 | 4.0 | 10.0 | 0.00 | 0.23 | 0.23 | 79 | 1009.9 |
| 20260506181953 | 68 | 93 | 3.0 | 6.0 | 0.00 | 0.23 | 0.23 | 79 | 1010.4 |
| 20260506181451 | 67 | 346 | 6.0 | 9.0 | 0.00 | 0.23 | 0.23 | 79 | 1010.3 |
| 20260506180947 | 68 | 198 | 6.0 | 10.0 | 0.00 | 0.23 | 0.23 | 79 | 1010.4 |
| 20260506180443 | 68 | 189 | 1.0 | 6.0 | 0.00 | 0.23 | 0.23 | 79 | 1010.4 |
| 20260506175935 | 68 | 290 | 2.0 | 9.0 | 0.00 | 0.23 | 0.23 | 80 | 1010.4 |
| 20260506175432 | 68 | 101 | 1.0 | 6.0 | 0.00 | 0.23 | 0.23 | 80 | 1010.3 |
| 20260506174928 | 68 | 58 | 4.0 | 7.0 | 0.00 | 0.23 | 0.23 | 79 | 1010.5 |
| 20260506174426 | 68 | 183 | 1.0 | 3.0 | 0.00 | 0.23 | 0.23 | 81 | 1010.6 |
| 20260506173917 | 67 | 249 | 2.0 | 6.0 | 0.00 | 0.23 | 0.23 | 81 | 1010.8 |
| 20260506173414 | 67 | 301 | 4.0 | 4.0 | 0.00 | 0.23 | 0.23 | 81 | 1010.7 |
| 20260506172911 | 67 | 18 | 3.0 | 8.0 | 0.00 | 0.23 | 0.23 | 82 | 1010.7 |
| 20260506172408 | 66 | 131 | 0.0 | 8.0 | 0.00 | 0.23 | 0.23 | 83 | 1010.7 |
| 20260506171905 | 66 | 318 | 6.0 | 11.0 | 0.00 | 0.23 | 0.23 | 82 | 1010.6 |
| 20260506171403 | 66 | 276 | 4.0 | 9.0 | 0.00 | 0.23 | 0.23 | 82 | 1010.7 |
| 20260506170900 | 66 | 241 | 4.0 | 8.0 | 0.00 | 0.23 | 0.23 | 82 | 1010.7 |
| 20260506170355 | 66 | 234 | 6.0 | 9.0 | 0.00 | 0.23 | 0.23 | 83 | 1010.9 |
| 20260506165855 | 66 | 259 | 2.0 | 3.0 | 0.00 | 0.23 | 0.23 | 84 | 1010.7 |
| 20260506165352 | 66 | 253 | 3.0 | 7.0 | 0.00 | 0.23 | 0.23 | 84 | 1010.8 |
| 20260506164843 | 66 | 239 | 2.0 | 8.0 | 0.00 | 0.23 | 0.23 | 85 | 1010.9 |
| 20260506164340 | 66 | 72 | 5.0 | 8.0 | 0.00 | 0.23 | 0.23 | 84 | 1010.9 |
| 20260506163838 | 66 | 217 | 2.0 | 4.0 | 0.00 | 0.23 | 0.23 | 86 | 1010.9 |
| 20260506163332 | 65 | 189 | 3.0 | 7.0 | 0.00 | 0.23 | 0.23 | 86 | 1011.1 |
| 20260506162827 | 65 | 281 | 2.0 | 4.0 | 0.00 | 0.23 | 0.23 | 88 | 1010.9 |
| 20260506162325 | 64 | 322 | 4.0 | 8.0 | 0.00 | 0.23 | 0.23 | 88 | 1011.2 |
| 20260506161822 | 64 | 282 | 3.0 | 8.0 | 0.00 | 0.23 | 0.23 | 89 | 1010.8 |
| 20260506161319 | 64 | 212 | 2.0 | 8.0 | 0.00 | 0.23 | 0.23 | 90 | 1011.0 |
| 20260506160812 | 64 | 277 | 3.0 | 8.0 | 0.00 | 0.23 | 0.23 | 90 | 1011.1 |
| 20260506160308 | 64 | 18 | 2.0 | 6.0 | 0.00 | 0.23 | 0.23 | 91 | 1011.0 |
| 20260506155807 | 64 | 223 | 2.0 | 4.0 | 0.00 | 0.23 | 0.23 | 92 | 1011.1 |
| 20260506155306 | 64 | 203 | 1.0 | 3.0 | 0.00 | 0.23 | 0.23 | 92 | 1011.3 |
| 20260506153415 | 62 | 148 | 0.0 | 2.0 | 0.00 | 0.23 | 0.23 | 94 | 1011.6 |
| 20260506152912 | 63 | 40 | 3.0 | 9.0 | 0.00 | 0.23 | 0.23 | 94 | 1011.6 |
| 20260506152409 | 62 | 117 | 2.0 | 6.0 | 0.05 | 0.23 | 0.23 | 94 | 1011.5 |
| 20260506151908 | 62 | 171 | 1.0 | 3.0 | 0.12 | 0.23 | 0.23 | 94 | 1011.4 |
| 20260506151404 | 62 | 61 | 1.0 | 3.0 | 0.12 | 0.22 | 0.22 | 93 | 1011.6 |
| 20260506150902 | 62 | 151 | 0.0 | 3.0 | 0.12 | 0.21 | 0.21 | 93 | 1011.8 |
| 20260506150358 | 62 | 34 | 1.0 | 3.0 | 0.07 | 0.20 | 0.20 | 93 | 1011.8 |
| 20260506145855 | 62 | 112 | 1.0 | 6.0 | 0.05 | 0.19 | 0.19 | 93 | 1012.1 |
| 20260506145351 | 62 | 148 | 0.0 | 4.0 | 0.12 | 0.19 | 0.19 | 93 | 1012.0 |
| 20260506144849 | 62 | 140 | 1.0 | 1.0 | 0.07 | 0.18 | 0.18 | 93 | 1012.3 |
| 20260506144345 | 62 | 143 | 1.0 | 6.0 | 0.00 | 0.17 | 0.17 | 93 | 1012.0 |
| 20260506143844 | 62 | 239 | 1.0 | 3.0 | 0.00 | 0.17 | 0.17 | 93 | 1012.1 |
| 20260506143340 | 62 | 143 | 0.0 | 3.0 | 0.05 | 0.17 | 0.17 | 93 | 1012.2 |
| 20260506142839 | 62 | 72 | 1.0 | 2.0 | 0.05 | 0.17 | 0.17 | 93 | 1012.4 |
| 20260506142336 | 62 | 147 | 0.0 | 2.0 | 0.12 | 0.16 | 0.16 | 93 | 1012.0 |
| 20260506141834 | 62 | 87 | 0.0 | 2.0 | 0.19 | 0.16 | 0.16 | 92 | 1012.3 |
| 20260506141332 | 62 | 140 | 0.0 | 3.0 | 0.19 | 0.14 | 0.14 | 92 | 1012.1 |
| 20260506140830 | 62 | 103 | 0.0 | 4.0 | 0.12 | 0.12 | 0.12 | 91 | 1012.1 |
| 20260506140326 | 62 | 128 | 1.0 | 2.0 | 0.19 | 0.11 | 0.11 | 91 | 1011.9 |
| 20260506135824 | 62 | 145 | 2.0 | 3.0 | 0.17 | 0.10 | 0.10 | 90 | 1012.0 |
| 20260506135320 | 63 | 64 | 1.0 | 2.0 | 0.12 | 0.08 | 0.08 | 90 | 1012.1 |
| 20260506134817 | 63 | 156 | 1.0 | 3.0 | 0.12 | 0.07 | 0.07 | 89 | 1012.3 |
| 20260506134313 | 63 | 120 | 1.0 | 1.0 | 0.07 | 0.05 | 0.05 | 88 | 1012.3 |
| 20260506133810 | 63 | 157 | 0.0 | 2.0 | 0.12 | 0.05 | 0.05 | 88 | 1012.2 |
| 20260506133307 | 63 | 154 | 1.0 | 2.0 | 0.12 | 0.04 | 0.04 | 86 | 1012.5 |
| 20260506132803 | 64 | 341 | 2.0 | 3.0 | 0.07 | 0.03 | 0.03 | 85 | 1012.5 |
| 20260506132301 | 64 | 160 | 2.0 | 3.0 | 0.05 | 0.02 | 0.02 | 84 | 1012.3 |
| 20260506131759 | 64 | 170 | 1.0 | 4.0 | 0.05 | 0.02 | 0.02 | 83 | 1012.3 |
| 20260506131254 | 64 | 132 | 1.0 | 2.0 | 0.00 | 0.01 | 0.01 | 82 | 1012.6 |
| 20260506130751 | 64 | 332 | 3.0 | 4.0 | 0.00 | 0.01 | 0.01 | 82 | 1012.2 |
| 20260506130248 | 64 | 218 | 1.0 | 2.0 | 0.00 | 0.01 | 0.01 | 83 | 1012.3 |
| 20260506125746 | 64 | 242 | 0.0 | 3.0 | 0.00 | 0.01 | 0.01 | 83 | 1012.2 |
| 20260506125244 | 64 | 125 | 1.0 | 3.0 | 0.00 | 0.01 | 0.01 | 84 | 1011.9 |
| 20260506124742 | 64 | 140 | 1.0 | 2.0 | 0.00 | 0.01 | 0.01 | 84 | 1011.7 |
| 20260506124239 | 64 | 167 | 0.0 | 0.0 | 0.00 | 0.01 | 0.01 | 84 | 1011.8 |
| 20260506123737 | 64 | 173 | 1.0 | 2.0 | 0.00 | 0.01 | 0.01 | 84 | 1011.6 |
| 20260506123235 | 64 | 127 | 2.0 | 4.0 | 0.00 | 0.01 | 0.01 | 84 | 1011.7 |
| 20260506122732 | 64 | 148 | 1.0 | 2.0 | 0.07 | 0.01 | 0.01 | 82 | 1011.7 |
| 20260506122229 | 64 | 320 | 2.0 | 4.0 | 0.07 | 0.01 | 0.01 | 81 | 1011.9 |
| 20260506121728 | 65 | 30 | 3.0 | 4.0 | 0.00 | 0.00 | 0.00 | 79 | 1012.2 |
| 20260506121224 | 65 | 85 | 1.0 | 4.0 | 0.00 | 0.00 | 0.00 | 78 | 1012.3 |